MST,Max TemperatureF,Mean TemperatureF,Min TemperatureF,Max Dew PointF,MeanDew PointF,Min DewpointF,Max Humidity, Mean Humidity, Min Humidity, Max Sea Level PressureIn, Mean Sea Level PressureIn, Min Sea Level PressureIn, Max VisibilityMiles, Mean VisibilityMiles, Min VisibilityMiles, Max Wind SpeedMPH, Mean Wind SpeedMPH, Max Gust SpeedMPH,PrecipitationIn, CloudCover, Events, WindDirDegrees
2013-1-1,27,15,3,17,8,1,92,79,60,30.33,30.26,30.07,10,10,6,14,7,,T,2,,272
2013-1-2,32,21,10,21,15,6,88,75,54,30.40,30.26,30.13,10,9,2,24,17,30,T,4,Snow,310
2013-1-3,33,18,3,16,7,-1,88,69,38,30.51,30.40,30.28,10,10,9,13,9,,T,1,,283
2013-1-4,43,26,8,18,8,1,81,57,24,30.36,30.22,30.06,10,10,10,13,9,,0.00,0,,243
2013-1-5,41,27,12,22,15,5,85,65,47,30.40,30.26,30.04,10,10,10,20,12,24,0.00,0,,304
2013-1-6,49,32,15,23,17,10,85,66,30,30.38,30.19,29.94,10,10,10,22,11,,0.00,0,,218
2013-1-7,51,35,19,21,17,13,85,58,23,30.05,29.96,29.82,10,10,10,13,8,,0.00,0,,352
2013-1-8,50,33,15,25,19,12,85,64,35,30.29,30.02,29.80,10,10,10,17,9,24,0.00,0,,295
2013-1-9,54,36,17,26,20,13,81,51,24,30.45,30.28,30.17,10,10,10,22,13,30,0.00,0,,204
2013-1-10,52,41,30,38,35,23,100,86,57,30.14,29.70,29.46,10,7,1,21,13,,0.00,5,,196
2013-1-11,53,33,13,34,18,3,100,59,15,29.89,29.48,29.26,10,7,0,44,18,56,T,3,Fog-Snow,239
2013-1-12,21,11,1,4,2,-3,84,70,48,30.24,30.08,29.87,10,10,10,18,9,25,0.00,1,,337
2013-1-13,22,10,-3,5,-2,-7,83,71,48,30.38,30.26,30.05,10,10,10,10,7,,0.00,2,,303
2013-1-14,25,11,-4,16,10,-5,93,80,68,30.40,30.20,30.07,10,6,2,20,8,25,T,8,Snow,149
2013-1-15,31,16,0,22,9,0,93,73,32,30.31,30.19,30.08,10,9,4,16,6,22,T,6,Snow,298
2013-1-16,53,39,25,22,21,18,72,53,32,30.36,30.21,30.10,10,10,10,21,16,30,0.00,4,,326
2013-1-17,53,36,19,20,16,12,75,53,22,30.55,30.40,30.21,10,10,8,16,10,,0.00,0,,225
2013-1-18,63,43,23,19,10,4,71,38,10,30.19,30.10,29.99,10,10,10,23,12,31,0.00,0,,277
2013-1-19,57,41,24,13,11,8,53,36,17,30.29,30.18,30.00,10,10,10,16,10,22,0.00,0,,261
2013-1-20,50,30,9,22,14,6,88,61,24,30.44,30.26,30.13,10,10,10,30,13,41,0.00,0,,21
2013-1-21,56,33,9,23,14,5,88,61,20,30.36,30.22,30.08,10,10,10,16,9,23,0.00,0,,209
2013-1-22,59,39,18,14,8,5,65,37,12,30.22,30.13,30.05,10,10,10,15,9,,0.00,0,,275
2013-1-23,64,43,21,18,10,-5,85,39,6,30.29,30.16,30.07,10,10,10,16,11,,0.00,0,,149
2013-1-24,53,36,18,23,18,15,93,71,28,30.25,30.14,29.99,10,9,2,20,11,23,0.00,3,,206
2013-1-25,55,37,18,24,20,15,85,54,31,30.27,30.17,30.06,10,10,10,17,9,,0.00,0,,209
2013-1-26,61,41,20,35,24,15,92,58,26,30.06,29.92,29.69,10,10,7,13,7,,0.02,3,Rain,170
2013-1-27,56,40,24,41,32,24,100,82,53,29.82,29.72,29.62,10,8,2,16,8,,0.00,0,,312
2013-1-28,67,48,28,38,30,20,96,73,18,29.75,29.63,29.42,10,9,5,26,15,38,0.00,4,,253
2013-1-29,31,25,18,27,21,12,93,80,54,29.93,29.72,29.62,10,8,1,22,14,31,T,6,Snow,348
2013-1-30,37,21,5,20,12,2,85,64,34,30.06,29.96,29.86,10,10,10,28,16,33,0.00,4,,297
2013-1-31,39,28,16,22,17,11,89,64,43,30.29,30.13,29.91,10,10,7,18,10,24,T,3,Snow,347